Regional Weather Roundup
Issued by NWS

Home | Current Version | Previous Version | Graphics & Text | Print | Product List | Glossary On
Versions: 1 2 3 4 5 6 7 8 9 10 11 12 13 14 15 16 17 18 19 20 21 22 23 24 25 26 27 28 29 30 31 32 33 34 35 36 37 38 39 40 41 42 43 44 45 46 47 48 49 50
000
ASUS43 KFSD 051810
RWRSD

WEATHER ROUNDUP FOR SOUTH DAKOTA
NATIONAL WEATHER SERVICE SIOUX FALLS SD
1200 PM CST MON DEC 05 2016

NOTE: "FAIR" INDICATES FEW OR NO CLOUDS BELOW 12,000 FEET WITH NO
SIGNIFICANT WEATHER AND/OR OBSTRUCTIONS TO VISIBILITY.


SDZ001>005-009-010-012>017-051900-
NORTHWEST AND NORTH CENTRAL SOUTH DAKOTA

CITY           SKY/WX    TMP DP  RH WIND       PRES   REMARKS
BUFFALO          N/A     24  17  74 NW39G52   29.58R WCI   5
FAITH            N/A     24  23  96 NW30G39   29.60R WCI   7
MOBRIDGE       CLOUDY    34  28  79 N15       29.51R WCI  24
$$

SDZ012>016-024>037-041>051-057-063-072>074-051900-
SOUTHWEST AND SOUTH CENTRAL SOUTH DAKOTA

CITY           SKY/WX    TMP DP  RH WIND       PRES   REMARKS
RAPID CTY ARPT CLOUDY    27  17  66 NW35G53   29.64R WCI  10
PIERRE         SUNNY     34  27  75 NW22      29.52R WCI  22
CUSTER         LGT SNOW  23  13  65 VRB6      29.55R WCI  16
ELLSWORTH AFB  PTSUNNY   26  19  73 NW32G44   29.63  WCI   9
PHILIP         LGT SNOW  33  29  85 NW26G37   29.61S FOG     WCI  20
PINE RIDGE     LGT SNOW  31  28  89 N17       29.63F FOG     WCI  19
SPEARFISH      LGT SNOW  21  16  79 NW22G32   29.71R WCI   5
WINNER         FAIR      40  26  57 NW24G31   29.53R
$$

SDZ004>011-016>023-039-040-051900-
NORTHEAST SOUTH DAKOTA

CITY           SKY/WX    TMP DP  RH WIND       PRES   REMARKS
ABERDEEN       CLOUDY    36  29  75 CALM      29.49F
WATERTOWN      CLOUDY    35  30  82 SE13      29.47F WCI  26
BROOKINGS      CLOUDY    36  31  82 SE12      29.48F
SISSETON         N/A     31  29  92 SE7       29.52F WCI  24
$$

SDZ017-020-022-023-036>040-048>070-051900-
SOUTHEAST SOUTH DAKOTA

CITY           SKY/WX    TMP DP  RH WIND       PRES   REMARKS
SIOUX FALLS    CLOUDY    41  32  70 S16G22    29.51F
HURON          PTSUNNY   39  30  70 MISG      29.47R
CHAMBERLAIN    SUNNY     40  31  70 W20G25    29.50R
MITCHELL       PTSUNNY   42  30  62 S10       29.47F
YANKTON        PTSUNNY   45  28  53 S15G21    29.50F
$$

ABBREVIATIONS USED IN REMARKS
   TC - TEMPERATURE IN CELSIUS
  WCI - WIND CHILL INDEX
   HX - HEAT INDEX
  VSB - VISIBILITY





USA.gov is the U.S. government's official web portal to all federal, state and local government web resources and services.